This is the latest recevied weather packets stored in our database for station/object KN6ETB-1. If no packets are shown the sender has not sent any weather packets the latest 10 day(s).
| Time | Temp. | Humidity | Pressure | Rain* | Wind** | Luminosity | Snow |
|---|---|---|---|---|---|---|---|
| 1777908917 | 13.33° C | 83% | 1011.2 hPa | 0 mm | - | 116 W/m² | - |
| 1777908616 | 12.78° C | 83% | 1011.5 hPa | 0 mm | - | 112 W/m² | - |
| 1777908312 | 12.78° C | 83% | 1011.4 hPa | 0 mm | - | 98 W/m² | - |
| 1777908008 | 12.78° C | 83% | 1011.4 hPa | 0 mm | - | 94 W/m² | - |
| 1777907704 | 12.78° C | 83% | 1011.4 hPa | 0 mm | - | 95 W/m² | - |
| 1777907398 | 12.22° C | 84% | 1011.4 hPa | 0 mm | - | 111 W/m² | - |
| 1777907095 | 12.22° C | 85% | 1011.5 hPa | 0 mm | - | 108 W/m² | - |
| 1777906793 | 12.22° C | 86% | 1011.5 hPa | 0 mm | - | 90 W/m² | - |
| 1777906491 | 11.67° C | 87% | 1011.4 hPa | 0 mm | - | 74 W/m² | - |
| 1777906186 | 11.67° C | 87% | 1011.5 hPa | 0 mm | - | 72 W/m² | - |
| 1777905883 | 11.67° C | 87% | 1011.6 hPa | 0 mm | - | 65 W/m² | - |
| 1777905580 | 11.67° C | 88% | 1011.8 hPa | 0 mm | - | 57 W/m² | - |
| 1777905277 | 11.67° C | 88% | 1011.6 hPa | 0 mm | - | 49 W/m² | - |
| 1777904974 | 11.67° C | 88% | 1011.6 hPa | 0 mm | - | 47 W/m² | - |
| 1777904672 | 11.67° C | 88% | 1011.6 hPa | 0 mm | - | 44 W/m² | - |
| 1777904368 | 11.67° C | 87% | 1011.5 hPa | 0 mm | - | 41 W/m² | - |
| 1777904065 | 11.67° C | 87% | 1011.5 hPa | 0 mm | - | 40 W/m² | - |
| 1777903762 | 11.67° C | 87% | 1011.4 hPa | 0 mm | - | 40 W/m² | - |
| 1777903458 | 11.67° C | 87% | 1011.4 hPa | 0 mm | - | 42 W/m² | - |
| 1777903155 | 11.67° C | 87% | 1011.7 hPa | 0 mm | - | 46 W/m² | - |
| 1777902851 | 11.67° C | 88% | 1011.5 hPa | 0 mm | - | 39 W/m² | - |
| 1777902549 | 11.67° C | 88% | 1011.8 hPa | 0 mm | - | 35 W/m² | - |
| 1777902245 | 11.67° C | 88% | 1011.6 hPa | 0 mm | - | 32 W/m² | - |
| 1777901943 | 11.67° C | 87% | 1011.2 hPa | 0 mm | - | 26 W/m² | - |
| 1777901641 | 11.67° C | 86% | 1011.3 hPa | 0 mm | - | 19 W/m² | - |
* Rain latest hour (hover to see other rain measurements)
** Current wind speed in m/s (hover to see current wind gust speed)